"Period start","avg(HW err(1)/warn(2) (#))","avg(Visibility (m))","avg(Weather code (#))","avg(Precip intensity (mm/h))","min(HW err(1)/warn(2) (#))","max(HW err(1)/warn(2) (#))","std(HW err(1)/warn(2) (#))","med(HW err(1)/warn(2) (#))","min(Visibility (m))","max(Visibility (m))","std(Visibility (m))","med(Visibility (m))","min(Weather code (#))","max(Weather code (#))","std(Weather code (#))","med(Weather code (#))","min(Precip intensity (mm/h))","max(Precip intensity (mm/h))","std(Precip intensity (mm/h))","med(Precip intensity (mm/h))"
2016-08-24 00:00:00,2,19434,58,2.16,2,2,0,2,10507,26433,4099,19390,52,61,4,61,0.55,4.95,1.24,1.78
2016-08-24 00:10:00,2,19630,54,1.97,2,2,0,2,15073,21720,2509,20832,52,61,4,52,1.15,2.65,0.48,1.95
2016-08-24 00:20:00,2,20738,52,1.98,2,2,0,2,16190,30259,4171,19304,52,52,0,52,0.90,3.00,0.55,1.92
2016-08-24 00:30:00,2,20544,53,1.64,2,2,0,2,14064,28106,4663,19941,52,61,3,52,0.90,2.35,0.48,1.75
2016-08-24 00:40:00,2,16809,54,1.22,2,2,0,2,12341,21964,3028,16613,52,61,4,52,0.55,1.60,0.30,1.20
2016-08-24 00:50:00,2,25393,52,0.77,2,2,0,2,16687,38053,6691,26844,52,52,0,52,0.30,1.40,0.36,0.68
2016-08-24 01:00:00,2,24131,52,1.64,2,2,0,2,18512,33976,4733,23922,52,52,0,52,0.45,2.70,0.71,1.43
2016-08-24 01:10:00,2,24602,55,1.22,2,2,0,2,17374,33116,4281,23412,52,61,4,52,0.65,2.05,0.38,1.10
2016-08-24 01:20:00,2,15337,52,2.21,2,2,0,2,11022,21948,3130,15056,52,52,0,52,1.25,3.85,0.78,2.15
2016-08-24 01:30:00,2,18707,52,0.53,2,2,0,2,16228,21780,1785,18695,51,52,0,52,0.15,1.40,0.33,0.42
2016-08-24 01:40:00,2,28270,45,0.14,2,2,0,2,22278,38971,5291,27086,0,61,23,51,0.00,0.30,0.13,0.08
2016-08-24 01:50:00,2,38640,51,0.16,2,2,0,2,29156,50000,6765,37231,51,51,0,51,0.00,0.40,0.13,0.15
2016-08-24 02:00:00,2,43318,5,0.00,2,2,0,2,32591,50000,5732,46104,0,51,15,0,0.00,0.00,0.00,0.00
2016-08-24 02:10:00,2,41368,55,0.16,2,2,0,2,33678,49466,4699,40772,51,61,5,51,0.00,0.60,0.19,0.08
2016-08-24 02:20:00,2,20194,55,1.93,2,2,0,2,15024,37372,6688,17764,51,61,5,51,0.15,5.25,1.47,2.17
2016-08-24 02:30:00,2,17394,61,3.83,2,2,0,2,14719,22799,2596,16350,61,61,0,61,1.75,8.30,1.81,3.50
2016-08-24 02:40:00,2,20510,58,0.91,2,2,0,2,13141,29005,4455,19646,51,61,5,61,0.25,1.75,0.42,0.97
2016-08-24 02:50:00,2,18680,59,1.90,2,2,0,2,12366,26638,4504,17626,52,61,4,61,0.80,3.70,0.88,1.60
2016-08-24 03:00:00,2,12536,61,4.04,2,2,0,2,7534,18720,2879,12428,61,62,0,61,1.50,11.70,2.98,2.78
2016-08-24 03:10:00,2,10318,61,2.41,2,2,0,2,8389,13075,1275,10136,61,61,0,61,1.45,7.10,1.63,1.82
2016-08-24 03:20:00,2,11118,60,2.04,2,2,0,2,8198,13091,1605,11394,52,61,3,61,1.10,3.20,0.66,1.95
2016-08-24 03:30:00,2,8308,60,4.76,2,2,0,2,6031,11302,1628,7998,52,61,3,61,2.60,8.25,1.64,4.40
2016-08-24 03:40:00,2,8262,61,3.25,2,2,0,2,6025,10598,1410,8186,61,61,0,61,1.55,4.35,1.00,3.40
2016-08-24 03:50:00,2,8513,61,4.60,2,2,0,2,6659,10387,1212,8216,61,61,0,61,3.00,9.20,1.79,4.08
2016-08-24 04:00:00,2,9578,61,3.08,2,2,0,2,6395,14182,2214,9036,61,61,0,61,1.05,4.75,0.96,2.88
2016-08-24 04:10:00,2,7527,61,3.81,2,2,0,2,5957,9872,1089,7503,61,62,0,61,1.55,10.60,2.49,2.95
2016-08-24 04:20:00,2,8606,61,3.92,2,2,0,2,6295,10043,1367,9124,61,62,0,61,1.15,11.85,2.88,2.95
2016-08-24 04:30:00,2,9901,61,2.58,2,2,0,2,8429,12521,1132,9700,61,61,0,61,1.20,7.25,1.67,2.35
2016-08-24 04:40:00,2,12123,61,2.02,2,2,0,2,9919,14381,1618,11750,61,61,0,61,1.15,3.50,0.62,2.00
2016-08-24 04:50:00,2,12913,61,1.19,2,2,0,2,11003,16866,2020,12182,61,61,0,61,0.45,5.10,1.33,0.75
2016-08-24 05:00:00,2,14664,53,0.85,2,2,0,2,12361,17677,1620,14435,51,61,3,52,0.65,1.10,0.14,0.85
2016-08-24 05:10:00,2,11805,52,0.72,2,2,0,2,9681,15668,1695,11383,52,52,0,52,0.45,0.95,0.18,0.75
2016-08-24 05:20:00,2,14465,55,1.28,2,2,0,2,10567,17882,2230,14266,52,61,4,52,0.70,1.85,0.36,1.25
2016-08-24 05:30:00,2,15608,61,1.94,2,2,0,2,10948,21907,3141,16217,61,61,0,61,0.95,3.00,0.57,1.80
2016-08-24 05:40:00,2,15961,61,1.73,2,2,0,2,10989,21821,3608,15566,61,61,0,61,0.90,2.65,0.46,1.62
2016-08-24 05:50:00,2,13567,61,1.24,2,2,0,2,11093,16979,1863,13137,61,61,0,61,0.50,2.30,0.49,1.20
2016-08-24 06:00:00,2,13373,54,1.60,2,2,0,2,10228,15785,1402,13393,52,61,4,52,0.75,3.55,0.81,1.48
2016-08-24 06:10:00,2,15472,51,0.32,2,2,0,2,11460,19511,2670,15487,51,52,0,51,0.05,0.80,0.19,0.30
2016-08-24 06:20:00,2,11844,51,0.49,2,2,0,2,9781,15107,1807,11310,51,52,0,51,0.10,1.25,0.35,0.38
2016-08-24 06:30:00,2,10130,52,2.08,2,2,0,2,6762,15899,2985,9002,52,52,0,52,0.70,3.05,0.77,2.30
2016-08-24 06:40:00,2,10935,58,2.45,2,2,0,2,6917,14684,2047,10876,52,61,4,61,1.55,4.90,0.97,2.08
2016-08-24 06:50:00,2,10400,61,1.74,2,2,0,2,5683,19599,3794,8874,61,61,0,61,0.30,3.80,1.13,1.62
2016-08-24 07:00:00,2,9449,61,1.91,2,2,0,2,7850,11238,987,9240,61,61,0,61,1.15,3.15,0.56,1.75
2016-08-24 07:10:00,2,11066,59,1.18,2,2,0,2,8482,14887,1598,10832,52,61,4,61,0.55,2.40,0.55,1.07
2016-08-24 07:20:00,2,19121,52,0.47,2,2,0,2,11669,26488,4395,20426,51,52,0,52,0.25,0.75,0.17,0.42
2016-08-24 07:30:00,2,17308,58,0.64,2,2,0,2,13760,22065,2362,16670,51,61,4,61,0.25,1.55,0.33,0.60
2016-08-24 07:40:00,2,12951,52,0.91,2,2,0,2,8527,18522,3908,11668,51,52,0,52,0.50,1.40,0.30,0.97
2016-08-24 07:50:00,2,10308,52,1.28,2,2,0,2,8040,12638,1272,10526,52,52,0,52,0.70,1.90,0.33,1.33
2016-08-24 08:00:00,2,12730,53,1.19,2,2,0,2,10501,14357,1078,12768,52,61,3,52,0.70,2.25,0.47,1.08
2016-08-24 08:10:00,2,11491,61,6.09,2,2,0,2,8839,15705,2014,10844,61,62,0,61,1.55,15.65,4.49,5.03
2016-08-24 08:20:00,2,11635,61,4.90,2,2,0,2,9148,13449,1296,12047,61,62,0,61,2.15,11.10,3.03,3.48
2016-08-24 08:30:00,2,10778,61,3.40,2,2,0,2,7868,15185,2138,10082,61,61,0,61,1.60,6.75,1.50,3.30
2016-08-24 08:40:00,2,13353,61,2.56,2,2,0,2,9173,17345,2503,13504,61,61,0,61,0.75,4.75,1.25,2.30
2016-08-24 08:50:00,2,9778,61,1.69,2,2,0,2,5971,12175,1857,10404,61,61,0,61,1.05,2.45,0.51,1.62
2016-08-24 09:00:00,2,10708,61,2.81,2,2,0,2,9554,13750,1145,10294,61,61,0,61,1.00,6.15,1.97,1.90
2016-08-24 09:10:00,2,9666,61,2.65,2,2,0,2,8500,11627,929,9398,61,61,0,61,1.75,3.60,0.63,2.65
2016-08-24 09:20:00,2,12367,61,1.52,2,2,0,2,9092,15914,2348,12645,61,61,0,61,0.65,3.20,0.83,1.28
2016-08-24 09:30:00,2,12008,61,1.43,2,2,0,2,9495,16421,2169,11019,61,61,0,61,0.65,4.90,1.19,1.10
2016-08-24 09:40:00,2,11987,61,1.15,2,2,0,2,10008,14319,1430,11900,61,61,0,61,0.40,3.35,0.78,0.88
2016-08-24 09:50:00,2,12414,61,0.58,2,2,0,2,8992,14981,1574,12462,61,61,0,61,0.30,1.40,0.30,0.45
2016-08-24 10:00:00,2,9318,54,0.91,2,2,0,2,6647,12803,1714,9102,52,61,4,52,0.55,1.65,0.38,0.73
2016-08-24 10:10:00,2,10238,52,1.23,2,2,0,2,7844,12225,1436,10302,52,52,0,52,0.75,1.85,0.42,1.05
2016-08-24 10:20:00,2,10839,52,1.04,2,2,0,2,9898,12567,715,10832,52,52,0,52,0.60,1.65,0.30,1.08
2016-08-24 10:30:00,2,11710,56,0.86,2,2,0,2,10219,15236,1426,11567,52,61,4,52,0.50,1.40,0.29,0.85
2016-08-24 10:40:00,2,13241,61,0.60,2,2,0,2,9454,17259,2045,13388,61,61,0,61,0.40,1.00,0.18,0.55
2016-08-24 10:50:00,2,15330,58,0.27,2,2,0,2,11529,19144,2559,15212,51,61,5,61,0.15,0.70,0.16,0.20
2016-08-24 11:00:00,2,28384,46,0.03,2,2,0,2,17621,45414,8189,26204,41,51,5,46,0.00,0.10,0.04,0.00
2016-08-24 11:10:00,2,22983,6,0.01,2,2,0,2,15995,31749,5067,22544,0,61,18,0,0.00,0.10,0.03,0.00
2016-08-24 11:20:00,2,42883,54,0.25,2,2,0,2,33868,49697,4987,43608,51,61,5,51,0.05,0.50,0.14,0.25
2016-08-24 11:30:00,2,36267,51,0.20,2,2,0,2,22874,49864,8162,33861,51,51,0,51,0.10,0.50,0.12,0.17
2016-08-24 11:40:00,2,26200,51,0.20,2,2,0,2,21729,39921,5746,24188,51,51,0,51,0.05,0.35,0.09,0.17
2016-08-24 11:50:00,2,28845,31,0.02,2,2,0,2,21451,41930,5383,28746,0,51,25,51,0.00,0.05,0.02,0.00
2016-08-24 12:00:00,2,38794,0,0.00,2,2,0,2,25066,50000,7866,39040,0,0,0,0,0.00,0.00,0.00,0.00
2016-08-24 12:10:00,2,30442,0,0.00,2,2,0,2,17097,48861,8285,30070,0,0,0,0,0.00,0.00,0.00,0.00
2016-08-24 12:20:00,2,18879,35,0.08,2,2,0,2,15299,22570,2441,18978,0,61,28,51,0.00,0.20,0.07,0.10
2016-08-24 12:30:00,2,14760,20,0.03,2,2,0,2,12685,19819,2075,14528,0,51,25,0,0.00,0.10,0.04,0.00
2016-08-24 12:40:00,2,15212,40,0.48,2,2,0,2,9443,22160,3416,16132,0,61,26,52,0.00,1.45,0.49,0.30
2016-08-24 12:50:00,2,7825,56,1.55,2,2,0,2,4615,10881,1933,7604,52,61,4,52,0.40,3.55,1.00,1.18
2016-08-24 13:00:00,2,5253,61,2.29,2,2,0,2,3762,6611,911,5404,61,61,0,61,1.35,3.45,0.51,2.27
2016-08-24 13:10:00,2,6807,61,2.15,2,2,0,2,5426,8105,623,6832,61,61,0,61,1.70,2.45,0.26,2.23
2016-08-24 13:20:00,2,10647,59,1.58,2,2,0,2,7083,15301,2790,9562,52,61,4,61,0.65,3.65,0.82,1.45
2016-08-24 13:30:00,2,16582,59,0.77,2,2,0,2,11272,20939,2656,17015,52,61,4,61,0.15,1.45,0.37,0.77
2016-08-24 13:40:00,2,17030,61,0.83,2,2,0,2,13633,20559,2289,17005,61,61,0,61,0.25,2.15,0.54,0.60
2016-08-24 13:50:00,2,14851,61,0.36,2,2,0,2,10220,18698,2570,14488,61,61,0,61,0.15,0.95,0.22,0.28
2016-08-24 14:00:00,2,11384,61,0.80,2,2,0,2,9431,13298,1261,11308,61,61,0,61,0.25,1.75,0.42,0.78
2016-08-24 14:10:00,2,9210,61,0.78,2,2,0,2,8183,10679,895,9066,61,61,0,61,0.30,2.25,0.54,0.62
2016-08-24 14:20:00,2,8185,61,1.44,2,2,0,2,6297,11370,1696,7436,61,61,0,61,0.65,2.00,0.38,1.52
2016-08-24 14:30:00,2,5391,61,3.98,2,2,0,2,4793,6092,446,5352,61,61,0,61,2.25,7.70,1.58,3.83
2016-08-24 14:40:00,2,4953,61,5.50,2,2,0,2,4058,5661,486,5027,61,62,0,61,2.30,10.55,2.42,5.95
2016-08-24 14:50:00,2,4707,66,7.19,2,2,0,2,4040,5994,589,4616,61,68,3,67,3.15,14.80,4.01,5.62
2016-08-24 15:00:00,2,4641,65,3.38,2,2,0,2,4026,6273,638,4472,61,67,3,67,1.40,5.20,1.23,3.40
2016-08-24 15:10:00,2,4252,69,2.76,2,2,0,2,3583,5067,398,4236,67,74,2,69,1.40,4.95,1.08,2.92
2016-08-24 15:20:00,2,4566,70,3.00,2,2,0,2,3593,6108,712,4515,67,74,3,69,1.80,4.95,1.03,2.65
2016-08-24 15:30:00,2,4628,67,4.12,2,2,0,2,3432,6001,879,4605,67,67,0,67,2.45,6.90,1.16,4.03
2016-08-24 15:40:00,2,5248,68,3.61,2,2,0,2,3703,6402,752,5495,67,71,2,67,1.30,8.10,2.07,3.25
2016-08-24 15:50:00,2,4907,71,2.17,2,2,0,2,3914,5510,508,4958,71,71,0,71,1.05,4.05,0.79,1.98
2016-08-24 16:00:00,2,5192,71,1.52,2,2,0,2,3628,7335,1190,5257,71,71,0,71,0.45,2.70,0.75,1.65
2016-08-24 16:10:00,2,5081,71,1.10,2,2,0,2,3440,6607,870,5146,71,71,0,71,0.50,1.80,0.39,1.15
2016-08-24 16:20:00,2,5979,71,1.12,2,2,0,2,4448,9893,1442,5579,71,71,0,71,0.65,1.95,0.41,1.05
2016-08-24 16:30:00,2,6857,71,0.92,2,2,0,2,4887,9633,1263,6921,71,71,0,71,0.35,1.60,0.37,0.90
2016-08-24 16:40:00,2,5563,71,0.91,2,2,0,2,4250,7087,937,5797,71,71,0,71,0.35,1.45,0.32,0.88
2016-08-24 16:50:00,2,5527,71,0.59,2,2,0,2,4407,7146,765,5563,71,71,0,71,0.10,1.05,0.29,0.60
2016-08-24 17:00:00,2,6755,71,0.45,2,2,0,2,5460,7257,492,6826,71,71,0,71,0.15,0.65,0.17,0.47
2016-08-24 17:10:00,2,7127,71,0.40,2,2,0,2,5876,8186,732,7238,71,71,0,71,0.15,0.65,0.16,0.40
2016-08-24 17:20:00,2,6080,71,0.77,2,2,0,2,4563,6959,665,6102,71,71,0,71,0.45,1.20,0.23,0.75
2016-08-24 17:30:00,2,6646,71,0.54,2,2,0,2,5201,7976,744,6796,71,71,0,71,0.25,1.05,0.26,0.47
2016-08-24 17:40:00,2,9488,71,0.35,2,2,0,2,7499,11698,1552,8802,71,71,0,71,0.20,0.55,0.11,0.35
2016-08-24 17:50:00,2,14485,73,0.09,2,2,0,2,11273,18248,2375,14550,71,77,3,71,0.00,0.25,0.09,0.05
2016-08-24 18:00:00,2,19647,77,0.02,2,2,0,2,14800,25366,3312,20202,77,77,0,77,0.00,0.05,0.02,0.00
2016-08-24 18:10:00,2,20740,76,0.02,2,2,0,2,15351,24969,3297,21427,71,77,2,77,0.00,0.05,0.02,0.00
2016-08-24 18:20:00,2,13462,75,0.07,2,2,0,2,9046,17055,2387,13810,71,77,3,77,0.00,0.20,0.05,0.05
2016-08-24 18:30:00,2,17774,72,0.23,2,2,0,2,11419,25843,4123,16816,71,77,2,71,0.05,0.55,0.17,0.17
2016-08-24 18:40:00,2,19741,67,0.20,2,2,0,2,14447,26366,4260,20059,61,77,6,66,0.05,0.50,0.14,0.15
2016-08-24 18:50:00,2,17211,62,0.86,2,2,0,2,9338,26766,5680,16621,51,77,11,61,0.30,2.00,0.53,0.65
2016-08-24 19:00:00,2,11134,66,1.24,2,2,0,2,6186,16075,3678,11276,61,71,4,67,0.15,3.60,0.96,1.27
2016-08-24 19:10:00,2,10120,70,0.37,2,2,0,2,7814,11755,1379,10800,67,71,2,71,0.15,0.75,0.18,0.30
2016-08-24 19:20:00,2,7386,71,0.47,2,2,0,2,5011,9780,1771,7226,71,71,0,71,0.10,1.00,0.29,0.35
2016-08-24 19:30:00,2,11364,71,0.21,2,2,0,2,7533,20383,3483,10196,71,71,0,71,0.05,0.35,0.08,0.23
2016-08-24 19:40:00,2,17189,71,0.12,2,2,0,2,7852,26638,6057,16148,71,71,0,71,0.00,0.50,0.14,0.05
2016-08-24 19:50:00,2,43440,43,0.01,2,2,0,2,20047,50000,10472,50000,0,71,35,71,0.00,0.05,0.02,0.00
2016-08-24 20:00:00,2,50000,0,0.00,2,2,0,2,50000,50000,0,50000,0,0,0,0,0.00,0.00,0.00,0.00
2016-08-24 20:10:00,2,50000,0,0.00,2,2,0,2,50000,50000,0,50000,0,0,0,0,0.00,0.00,0.00,0.00
2016-08-24 20:20:00,2,50000,0,0.00,2,2,0,2,50000,50000,0,50000,0,0,0,0,0.00,0.00,0.00,0.00
2016-08-24 20:30:00,2,50000,0,0.00,2,2,0,2,50000,50000,0,50000,0,0,0,0,0.00,0.00,0.00,0.00
2016-08-24 20:40:00,2,50000,0,0.00,2,2,0,2,50000,50000,0,50000,0,0,0,0,0.00,0.00,0.00,0.00
2016-08-24 20:50:00,2,50000,0,0.00,2,2,0,2,50000,50000,0,50000,0,0,0,0,0.00,0.00,0.00,0.00
2016-08-24 21:00:00,2,50000,0,0.00,2,2,0,2,50000,50000,0,50000,0,0,0,0,0.00,0.00,0.00,0.00
2016-08-24 21:10:00,2,50000,0,0.00,2,2,0,2,50000,50000,0,50000,0,0,0,0,0.00,0.00,0.00,0.00
2016-08-24 21:20:00,2,50000,0,0.00,2,2,0,2,50000,50000,0,50000,0,0,0,0,0.00,0.00,0.00,0.00
2016-08-24 21:30:00,2,49764,0,0.00,2,2,0,2,47643,50000,707,50000,0,0,0,0,0.00,0.00,0.00,0.00
2016-08-24 21:40:00,2,50000,0,0.00,2,2,0,2,50000,50000,0,50000,0,0,0,0,0.00,0.00,0.00,0.00
2016-08-24 21:50:00,2,50000,0,0.00,2,2,0,2,50000,50000,0,50000,0,0,0,0,0.00,0.00,0.00,0.00
2016-08-24 22:00:00,2,50000,0,0.00,2,2,0,2,50000,50000,0,50000,0,0,0,0,0.00,0.00,0.00,0.00
2016-08-24 22:10:00,2,50000,0,0.00,2,2,0,2,50000,50000,0,50000,0,0,0,0,0.00,0.00,0.00,0.00
2016-08-24 22:20:00,2,49982,0,0.00,2,2,0,2,49825,50000,52,50000,0,0,0,0,0.00,0.00,0.00,0.00
2016-08-24 22:30:00,2,49969,0,0.00,2,2,0,2,49694,50000,92,50000,0,0,0,0,0.00,0.00,0.00,0.00
2016-08-24 22:40:00,2,49848,0,0.00,2,2,0,2,48878,50000,344,50000,0,0,0,0,0.00,0.00,0.00,0.00
2016-08-24 22:50:00,2,47912,0,0.00,2,2,0,2,43927,50000,2311,49193,0,0,0,0,0.00,0.00,0.00,0.00
2016-08-24 23:00:00,2,49297,0,0.00,2,2,0,2,46939,50000,1117,50000,0,0,0,0,0.00,0.00,0.00,0.00
2016-08-24 23:10:00,2,49379,0,0.00,2,2,0,2,46386,50000,1262,50000,0,0,0,0,0.00,0.00,0.00,0.00
2016-08-24 23:20:00,2,49073,0,0.00,2,2,0,2,44878,50000,1620,50000,0,0,0,0,0.00,0.00,0.00,0.00
2016-08-24 23:30:00,2,47064,0,0.00,2,2,0,2,39441,50000,3351,48147,0,0,0,0,0.00,0.00,0.00,0.00
2016-08-24 23:40:00,2,44638,0,0.00,2,2,0,2,29284,50000,6382,46250,0,0,0,0,0.00,0.00,0.00,0.00
2016-08-24 23:50:00,2,41574,0,0.00,2,2,0,2,29665,50000,6442,42397,0,0,0,0,0.00,0.00,0.00,0.00
